START_TIME,STEP,MOV.,M6,t_acc.,M7,t_acc.,M19,t_acc.,H36,t_acc.
1979-03-01 18:00:16.560 ,0,1,0.,12.0,0.,12.0,0.,12.0,0.,12.0
1979-03-01 18:00:28.560 ,0,1,0.,12.0,0.,12.0,0.,12.0,0.,12.0
1979-03-01 18:00:40.560 ,0,1,0.,12.0,0.,12.0,0.,12.0,0.,12.0
1979-03-01 18:00:52.560 ,0,1,0.,12.0,0.,12.0,0.,12.0,0.,12.0
1979-03-01 18:01:04.560 ,1,1,0.,12.0,0.,12.0,0.,12.0,0.,12.0
1979-03-01 18:01:16.560 ,1,1,0.,12.0,0.,12.0,0.,12.0,0.,12.0
1979-03-01 18:01:28.560 ,2,1,0.,12.0,0.,12.0,0.,12.0,0.,12.0
1979-03-01 18:01:40.560 ,2,1,0.,12.0,0.,12.0,0.,12.0,0.,12.0
1979-03-01 18:01:52.560 ,3,1,0.,12.0,0.,12.0,0.,12.0,0.,12.0
1979-03-01 18:02:04.560 ,3,1,0.,12.0,0.,12.0,0.,12.0,0.,12.0
1979-03-01 18:02:16.560 ,4,1,0.,12.0,0.,12.0,0.,12.0,0.,12.0
1979-03-01 18:02:28.560 ,4,1,0.,12.0,0.,12.0,0.,12.0,0.,12.0
1979-03-01 18:02:40.560 ,5,1,0.,12.0,0.,12.0,0.,12.0,0.,12.0
1979-03-01 18:02:52.560 ,5,1,0.,12.0,0.,12.0,0.,12.0,0.,12.0
1979-03-01 18:03:04.560 ,6,1,0.,12.0,0.,12.0,0.,12.0,0.,12.0
1979-03-01 18:03:16.560 ,6,1,0.,12.0,0.,12.0,0.,12.0,0.,12.0
1979-03-01 18:03:28.560 ,7,1,0.,12.0,0.,12.0,0.,12.0,0.,12.0
1979-03-01 18:03:40.560 ,7,1,0.,12.0,0.,12.0,0.,12.0,0.,12.0
1979-03-01 18:03:52.560 ,7,1,0.,12.0,0.,12.0,0.,12.0,0.,12.0
1979-03-01 18:04:04.560 ,7,1,0.,12.0,0.,12.0,0.,12.0,0.,12.0
1979-03-01 18:04:16.560 ,6,1,0.,12.0,0.,12.0,0.,12.0,0.,12.0
1979-03-01 18:04:28.560 ,6,1,0.,12.0,0.,12.0,0.,12.0,0.,12.0
1979-03-01 18:04:40.560 ,5,1,0.,12.0,0.,12.0,0.,12.0,0.,12.0
1979-03-01 18:04:52.560 ,5,1,0.,12.0,0.,12.0,0.,12.0,0.,12.0
1979-03-01 18:05:04.560 ,4,1,0.,12.0,0.,12.0,0.,12.0,0.,12.0
1979-03-01 18:05:16.560 ,4,1,0.,12.0,0.,12.0,0.,12.0,0.,12.0
1979-03-01 18:05:28.560 ,3,1,0.,12.0,0.,12.0,0.,12.0,0.,12.0
1979-03-01 18:05:40.560 ,3,1,0.,12.0,0.,12.0,0.,12.0,0.,12.0
1979-03-01 18:05:52.560 ,2,1,0.,12.0,0.,12.0,0.,12.0,0.,12.0
1979-03-01 18:06:04.560 ,2,1,0.,12.0,0.,12.0,0.,12.0,0.,12.0
1979-03-01 18:06:16.560 ,1,1,0.,12.0,0.,12.0,0.,12.0,0.,12.0
1979-03-01 18:06:28.560 ,1,1,0.,12.0,0.,12.0,0.,12.0,0.,12.0
1979-03-01 18:06:40.560 ,0,1,0.,12.0,0.,12.0,0.,12.0,0.,12.0
1979-03-01 18:06:52.560 ,0,1,0.,12.0,0.,12.0,0.,12.0,0.,12.0
1979-03-01 18:07:04.560 ,0,1,0.,12.0,0.,12.0,0.,12.0,0.,12.0
1979-03-01 18:07:16.560 ,0,1,0.,12.0,0.,12.0,0.,12.0,0.,12.0
1979-03-01 18:07:28.560 ,1,1,0.,12.0,0.,12.0,0.,12.0,0.,12.0
1979-03-01 18:07:40.560 ,1,1,0.,12.0,0.,12.0,0.,12.0,0.,12.0
1979-03-01 18:07:52.560 ,2,1,0.,12.0,0.,12.0,0.,12.0,0.,12.0
1979-03-01 18:08:04.560 ,2,1,0.,12.0,0.,12.0,0.,12.0,0.,12.0
1979-03-01 18:08:16.560 ,3,1,0.,12.0,0.,12.0,0.,12.0,0.,12.0
1979-03-01 18:08:28.560 ,3,1,0.,12.0,0.,12.0,0.,12.0,0.,12.0
1979-03-01 18:08:40.560 ,4,1,0.,12.0,0.,12.0,0.,12.0,0.,12.0
1979-03-01 18:08:52.560 ,4,1,0.,12.0,0.,12.0,0.,12.0,0.,12.0
1979-03-01 18:09:04.560 ,5,1,0.,12.0,0.,12.0,0.,12.0,0.,12.0
1979-03-01 18:09:16.560 ,5,1,0.,12.0,0.,12.0,0.,12.0,0.,12.0
1979-03-01 18:09:28.560 ,6,1,0.,12.0,0.,12.0,0.,12.0,0.,12.0
1979-03-01 18:09:40.560 ,6,1,0.,12.0,0.,12.0,0.,12.0,0.,12.0
1979-03-01 18:09:52.560 ,7,1,0.,12.0,0.,12.0,0.,12.0,0.,12.0
1979-03-01 18:10:04.560 ,7,1,0.,12.0,0.,12.0,0.,12.0,0.,12.0
1979-03-01 18:10:16.560 ,7,1,0.,12.0,0.,12.0,0.,12.0,0.,12.0
1979-03-01 18:10:28.560 ,7,1,0.,12.0,0.,12.0,0.,12.0,0.,12.0
1979-03-01 18:10:40.560 ,6,1,0.,12.0,0.,12.0,0.,12.0,0.,12.0
1979-03-01 18:10:52.560 ,6,1,0.,12.0,0.,12.0,0.,12.0,0.,12.0
1979-03-01 18:11:04.560 ,5,1,0.,12.0,0.,12.0,0.,12.0,0.,12.0
1979-03-01 18:11:16.560 ,5,1,0.,12.0,0.,12.0,0.,12.0,0.,12.0
1979-03-01 18:11:28.560 ,4,1,0.,12.0,0.,12.0,0.,12.0,0.,12.0
1979-03-01 18:11:40.560 ,4,1,0.,12.0,0.,12.0,0.,12.0,0.,12.0
1979-03-01 18:11:52.560 ,3,1,0.,12.0,0.,12.0,0.,12.0,0.,12.0
1979-03-01 18:12:04.560 ,3,1,0.,12.0,0.,12.0,0.,12.0,0.,12.0
1979-03-01 18:12:16.560 ,2,1,0.,12.0,0.,12.0,0.,12.0,0.,12.0
1979-03-01 18:12:28.560 ,2,1,0.,12.0,0.,12.0,0.,12.0,0.,12.0
1979-03-01 18:12:40.560 ,1,1,0.,12.0,0.,12.0,0.,12.0,0.,12.0
1979-03-01 18:12:52.560 ,1,1,0.,12.0,0.,12.0,0.,12.0,0.,12.0
1979-03-01 18:13:04.560 ,0,1,0.,12.0,0.,12.0,0.,12.0,0.,12.0
1979-03-01 18:13:16.560 ,0,1,0.,12.0,0.,12.0,0.,12.0,0.,12.0
1979-03-01 18:13:28.560 ,0,1,0.,12.0,0.,12.0,0.,12.0,0.,12.0
1979-03-01 18:13:40.560 ,0,1,0.,12.0,0.,12.0,0.,12.0,0.,12.0
1979-03-01 18:13:52.560 ,1,1,0.,12.0,0.,12.0,0.,12.0,0.,12.0
1979-03-01 18:14:04.560 ,1,1,0.,12.0,0.,12.0,0.,12.0,0.,12.0
1979-03-01 18:14:16.560 ,2,1,0.,12.0,0.,12.0,0.,12.0,0.,12.0
1979-03-01 18:14:28.560 ,2,1,0.,12.0,0.,12.0,0.,12.0,0.,12.0
1979-03-01 18:14:40.560 ,3,1,0.,12.0,0.,12.0,0.,12.0,0.,12.0
1979-03-01 18:14:52.560 ,3,1,0.,12.0,0.,12.0,0.,12.0,0.,12.0
1979-03-01 18:15:04.560 ,4,1,0.,12.0,0.,12.0,0.,12.0,0.,12.0
1979-03-01 18:15:16.560 ,4,1,0.,12.0,0.,12.0,0.,12.0,0.,12.0
1979-03-01 18:15:28.560 ,5,1,0.,12.0,0.,12.0,0.,12.0,0.,12.0
1979-03-01 18:15:40.560 ,5,1,0.,12.0,0.,12.0,0.,12.0,0.,12.0
1979-03-01 18:15:52.560 ,6,1,0.,12.0,0.,12.0,0.,12.0,0.,12.0
1979-03-01 18:16:04.560 ,6,1,0.,12.0,0.,12.0,0.,12.0,0.,12.0
1979-03-01 18:16:16.560 ,7,1,0.,12.0,0.,12.0,0.,12.0,0.,12.0
1979-03-01 18:16:28.560 ,7,1,0.,12.0,0.,12.0,0.,12.0,0.,12.0
1979-03-01 18:16:40.560 ,7,1,0.,12.0,0.,12.0,0.,12.0,0.,12.0
1979-03-01 18:16:52.560 ,7,1,0.,12.0,0.,12.0,0.,12.0,0.,12.0
1979-03-01 18:17:04.560 ,6,1,0.,12.0,0.,12.0,0.,12.0,0.,12.0
1979-03-01 18:17:16.560 ,6,1,0.,12.0,0.,12.0,0.,12.0,0.,12.0
1979-03-01 18:17:28.560 ,5,1,0.,12.0,0.,12.0,0.,12.0,0.,12.0
1979-03-01 18:17:40.560 ,5,1,0.,12.0,0.,12.0,0.,12.0,0.,12.0
1979-03-01 18:17:52.560 ,4,1,0.,12.0,0.,12.0,0.,12.0,0.,12.0
1979-03-01 18:18:04.560 ,4,1,0.,12.0,0.,12.0,0.,12.0,0.,12.0
1979-03-01 18:18:16.560 ,3,1,0.,12.0,0.,12.0,0.,12.0,0.,12.0
1979-03-01 18:18:28.560 ,3,1,0.,12.0,0.,12.0,0.,12.0,0.,12.0
1979-03-01 18:18:40.560 ,2,1,0.,12.0,0.,12.0,0.,12.0,0.,12.0
1979-03-01 18:18:52.560 ,2,1,0.,12.0,0.,12.0,0.,12.0,0.,12.0
1979-03-01 18:19:04.560 ,1,1,1.,12.0,0.,12.0,0.,12.0,0.,12.0
1979-03-01 18:19:16.560 ,1,1,0.,12.0,0.,12.0,0.,12.0,0.,12.0
1979-03-01 18:19:28.560 ,0,1,0.,12.0,0.,12.0,0.,12.0,0.,12.0
1979-03-01 18:19:40.560 ,0,1,0.,12.0,0.,12.0,0.,12.0,0.,12.0
1979-03-01 18:19:52.560 ,0,1,0.,12.0,0.,12.0,0.,12.0,0.,12.0
1979-03-01 18:20:04.560 ,0,1,0.,12.0,0.,12.0,0.,12.0,0.,12.0
1979-03-01 18:20:16.560 ,1,1,0.,12.0,0.,12.0,0.,12.0,0.,12.0
1979-03-01 18:20:28.560 ,1,1,0.,12.0,0.,12.0,0.,12.0,0.,12.0
1979-03-01 18:20:40.560 ,2,1,0.,12.0,0.,12.0,0.,12.0,0.,12.0
1979-03-01 18:20:52.560 ,2,1,0.,12.0,0.,12.0,0.,12.0,0.,12.0
1979-03-01 18:21:04.560 ,3,1,0.,12.0,0.,12.0,0.,12.0,0.,12.0
1979-03-01 18:21:16.560 ,3,1,0.,12.0,0.,12.0,0.,12.0,0.,12.0
1979-03-01 18:21:28.560 ,4,1,0.,12.0,0.,12.0,0.,12.0,0.,12.0
1979-03-01 18:21:40.560 ,4,1,0.,12.0,0.,12.0,0.,12.0,0.,12.0
1979-03-01 18:21:52.560 ,5,1,0.,12.0,0.,12.0,0.,12.0,0.,12.0
1979-03-01 18:22:04.560 ,5,1,0.,12.0,0.,12.0,0.,12.0,0.,12.0
1979-03-01 18:22:16.560 ,6,1,0.,12.0,0.,12.0,0.,12.0,0.,12.0
1979-03-01 18:22:28.560 ,6,1,0.,12.0,0.,12.0,0.,12.0,0.,12.0
1979-03-01 18:22:40.560 ,7,1,0.,12.0,0.,12.0,0.,12.0,0.,12.0
1979-03-01 18:22:52.560 ,7,1,0.,12.0,0.,12.0,0.,12.0,0.,12.0
1979-03-01 18:23:04.560 ,7,1,0.,12.0,0.,12.0,0.,12.0,0.,12.0
1979-03-01 18:23:16.560 ,7,1,0.,12.0,0.,12.0,0.,12.0,0.,12.0
1979-03-01 18:23:28.560 ,6,1,0.,12.0,0.,12.0,0.,12.0,0.,12.0
1979-03-01 18:23:40.560 ,6,1,0.,12.0,0.,12.0,0.,12.0,0.,12.0
1979-03-01 18:23:52.560 ,5,1,0.,12.0,0.,12.0,0.,12.0,0.,12.0
1979-03-01 18:24:04.560 ,5,1,0.,12.0,0.,12.0,0.,12.0,0.,12.0
1979-03-01 18:24:16.560 ,4,1,0.,12.0,0.,12.0,0.,12.0,0.,12.0
1979-03-01 18:24:28.560 ,4,1,0.,12.0,0.,12.0,0.,12.0,0.,12.0
1979-03-01 18:24:40.560 ,3,1,1.,12.0,0.,12.0,0.,12.0,0.,12.0
1979-03-01 18:24:52.560 ,3,1,0.,12.0,0.,12.0,0.,12.0,0.,12.0
1979-03-01 18:25:04.560 ,2,1,0.,12.0,0.,12.0,0.,12.0,0.,12.0
1979-03-01 18:25:16.560 ,2,1,0.,12.0,0.,12.0,0.,12.0,0.,12.0
1979-03-01 18:25:28.560 ,1,1,0.,12.0,0.,12.0,0.,12.0,0.,12.0
1979-03-01 18:25:40.560 ,1,1,0.,12.0,0.,12.0,0.,12.0,0.,12.0
1979-03-01 18:25:52.560 ,0,1,0.,12.0,0.,12.0,0.,12.0,0.,12.0
1979-03-01 18:26:04.560 ,0,1,0.,12.0,0.,12.0,0.,12.0,0.,12.0
1979-03-01 18:26:16.560 ,0,1,0.,12.0,0.,12.0,0.,12.0,0.,12.0
1979-03-01 18:26:28.560 ,0,1,0.,12.0,0.,12.0,0.,12.0,0.,12.0
1979-03-01 18:26:40.560 ,1,1,0.,12.0,0.,12.0,0.,12.0,0.,12.0
1979-03-01 18:26:52.560 ,1,1,0.,12.0,0.,12.0,0.,12.0,0.,12.0
1979-03-01 18:27:04.560 ,2,1,0.,12.0,0.,12.0,0.,12.0,0.,12.0
1979-03-01 18:27:16.560 ,2,1,0.,12.0,0.,12.0,0.,12.0,0.,12.0
1979-03-01 18:27:28.560 ,3,1,0.,12.0,0.,12.0,0.,12.0,0.,12.0
1979-03-01 18:27:40.560 ,3,1,0.,12.0,0.,12.0,0.,12.0,0.,12.0
1979-03-01 18:27:52.560 ,4,1,0.,12.0,0.,12.0,0.,12.0,0.,12.0
1979-03-01 18:28:04.560 ,4,1,0.,12.0,0.,12.0,0.,12.0,0.,12.0
1979-03-01 18:28:16.560 ,5,1,0.,12.0,0.,12.0,0.,12.0,0.,12.0
1979-03-01 18:28:28.560 ,5,1,0.,12.0,0.,12.0,0.,12.0,0.,12.0
1979-03-01 18:28:40.560 ,6,1,0.,12.0,0.,12.0,0.,12.0,0.,12.0
1979-03-01 18:28:52.560 ,6,1,0.,12.0,0.,12.0,0.,12.0,0.,12.0
1979-03-01 18:29:04.560 ,7,1,0.,12.0,0.,12.0,0.,12.0,0.,12.0
1979-03-01 18:29:16.560 ,7,1,0.,12.0,0.,12.0,0.,12.0,0.,12.0
1979-03-01 18:29:28.560 ,7,1,0.,12.0,0.,12.0,0.,12.0,0.,12.0
1979-03-01 18:29:40.560 ,7,1,0.,12.0,0.,12.0,0.,12.0,0.,12.0
1979-03-01 18:29:52.560 ,6,1,0.,12.0,0.,12.0,0.,12.0,0.,12.0
1979-03-01 18:30:04.560 ,6,1,0.,12.0,0.,12.0,0.,12.0,0.,12.0
1979-03-01 18:30:16.560 ,5,1,0.,12.0,0.,12.0,0.,12.0,0.,12.0
1979-03-01 18:30:28.560 ,5,1,0.,12.0,0.,12.0,0.,12.0,0.,12.0
1979-03-01 18:30:40.560 ,4,1,0.,12.0,0.,12.0,0.,12.0,0.,12.0
1979-03-01 18:30:52.560 ,4,1,0.,12.0,0.,12.0,0.,12.0,0.,12.0
1979-03-01 18:31:04.560 ,3,1,0.,12.0,0.,12.0,0.,12.0,0.,12.0
1979-03-01 18:31:16.560 ,3,1,0.,12.0,0.,12.0,0.,12.0,0.,12.0
1979-03-01 18:31:28.560 ,2,1,0.,12.0,0.,12.0,0.,12.0,0.,12.0
1979-03-01 18:31:40.560 ,2,1,0.,12.0,0.,12.0,0.,12.0,0.,12.0
1979-03-01 18:31:52.560 ,1,1,0.,12.0,0.,12.0,0.,12.0,0.,12.0
1979-03-01 18:32:04.560 ,1,1,0.,12.0,0.,12.0,0.,12.0,0.,12.0
1979-03-01 18:32:16.560 ,0,1,0.,12.0,0.,12.0,0.,12.0,0.,12.0
1979-03-01 18:32:28.560 ,0,1,0.,12.0,0.,12.0,0.,12.0,0.,12.0
1979-03-01 18:32:40.560 ,0,1,0.,12.0,0.,12.0,0.,12.0,0.,12.0
1979-03-01 18:32:52.560 ,0,1,0.,12.0,0.,12.0,0.,12.0,0.,12.0
1979-03-01 18:33:04.560 ,1,1,0.,12.0,0.,12.0,0.,12.0,0.,12.0
1979-03-01 18:33:16.560 ,1,1,0.,12.0,0.,12.0,0.,12.0,0.,12.0
1979-03-01 18:33:28.560 ,2,1,0.,12.0,0.,12.0,0.,12.0,0.,12.0
1979-03-01 18:33:40.560 ,2,1,0.,12.0,0.,12.0,0.,12.0,0.,12.0
1979-03-01 18:33:52.560 ,3,1,0.,12.0,0.,12.0,0.,12.0,0.,12.0
1979-03-01 18:34:04.560 ,3,1,0.,12.0,0.,12.0,0.,12.0,0.,12.0
1979-03-01 18:34:16.560 ,4,1,0.,12.0,0.,12.0,0.,12.0,0.,12.0
1979-03-01 18:34:28.560 ,4,1,0.,12.0,0.,12.0,0.,12.0,0.,12.0
1979-03-01 18:34:40.560 ,5,1,0.,12.0,0.,12.0,0.,12.0,0.,12.0
1979-03-01 18:34:52.560 ,5,1,0.,12.0,0.,12.0,0.,12.0,0.,12.0
1979-03-01 18:35:04.560 ,6,1,0.,12.0,0.,12.0,0.,12.0,0.,12.0
1979-03-01 18:35:16.560 ,6,1,0.,12.0,0.,12.0,0.,12.0,0.,12.0
1979-03-01 18:35:28.560 ,7,1,0.,12.0,0.,12.0,0.,12.0,0.,12.0
1979-03-01 18:35:40.560 ,7,1,0.,12.0,0.,12.0,0.,12.0,0.,12.0
1979-03-01 18:35:52.560 ,7,1,0.,12.0,0.,12.0,0.,12.0,0.,12.0
1979-03-01 18:36:04.560 ,7,1,0.,12.0,0.,12.0,0.,12.0,0.,12.0
1979-03-01 18:36:16.560 ,6,1,0.,12.0,0.,12.0,0.,12.0,0.,12.0
1979-03-01 18:36:28.560 ,6,1,0.,12.0,0.,12.0,0.,12.0,0.,12.0
1979-03-01 18:36:40.560 ,5,1,0.,12.0,0.,12.0,0.,12.0,0.,12.0
1979-03-01 18:36:52.560 ,5,1,0.,12.0,0.,12.0,0.,12.0,0.,12.0
1979-03-01 18:37:04.560 ,4,1,0.,12.0,0.,12.0,0.,12.0,0.,12.0
1979-03-01 18:37:16.560 ,4,1,0.,12.0,0.,12.0,0.,12.0,0.,12.0
1979-03-01 18:37:28.560 ,3,1,0.,12.0,0.,12.0,0.,12.0,0.,12.0
1979-03-01 18:37:40.560 ,3,1,0.,12.0,0.,12.0,0.,12.0,0.,12.0
1979-03-01 18:37:52.560 ,2,1,0.,12.0,0.,12.0,0.,12.0,0.,12.0
1979-03-01 18:38:04.560 ,2,1,0.,12.0,0.,12.0,0.,12.0,0.,12.0
1979-03-01 18:38:16.560 ,1,1,0.,12.0,0.,12.0,0.,12.0,0.,12.0
1979-03-01 18:38:28.560 ,1,1,0.,12.0,0.,12.0,0.,12.0,0.,12.0
1979-03-01 18:38:40.560 ,0,1,0.,12.0,0.,12.0,0.,12.0,0.,12.0
1979-03-01 18:38:52.560 ,0,1,0.,12.0,0.,12.0,0.,12.0,0.,12.0
1979-03-01 18:39:04.560 ,0,1,0.,12.0,0.,12.0,0.,12.0,0.,12.0
1979-03-01 18:39:16.560 ,0,1,0.,12.0,0.,12.0,0.,12.0,0.,12.0
1979-03-01 18:39:28.560 ,1,1,0.,12.0,0.,12.0,0.,12.0,0.,12.0
1979-03-01 18:39:40.560 ,1,1,0.,12.0,0.,12.0,0.,12.0,0.,12.0
1979-03-01 18:39:52.560 ,2,1,0.,12.0,0.,12.0,0.,12.0,0.,12.0
1979-03-01 18:40:04.560 ,2,1,0.,12.0,0.,12.0,0.,12.0,0.,12.0
1979-03-01 18:40:16.560 ,3,1,0.,12.0,0.,12.0,0.,12.0,0.,12.0
1979-03-01 18:40:28.560 ,3,1,0.,12.0,0.,12.0,0.,12.0,0.,12.0
1979-03-01 18:40:40.560 ,4,1,0.,12.0,0.,12.0,0.,12.0,0.,12.0
1979-03-01 18:40:52.560 ,4,1,0.,12.0,0.,12.0,0.,12.0,0.,12.0
1979-03-01 18:41:04.560 ,5,1,0.,12.0,0.,12.0,0.,12.0,0.,12.0
1979-03-01 18:41:16.560 ,5,1,0.,12.0,0.,12.0,0.,12.0,0.,12.0
1979-03-01 18:41:28.560 ,6,1,0.,12.0,0.,12.0,0.,12.0,0.,12.0
1979-03-01 18:41:40.560 ,6,1,0.,12.0,0.,12.0,0.,12.0,0.,12.0
1979-03-01 18:41:52.560 ,7,1,0.,12.0,0.,12.0,0.,12.0,0.,12.0
1979-03-01 18:42:04.560 ,7,1,0.,12.0,0.,12.0,0.,12.0,0.,12.0
1979-03-01 18:42:16.560 ,7,1,0.,12.0,0.,12.0,0.,12.0,0.,12.0
1979-03-01 18:42:28.560 ,7,1,0.,12.0,0.,12.0,0.,12.0,0.,12.0
1979-03-01 18:42:40.560 ,6,1,0.,12.0,0.,12.0,0.,12.0,0.,12.0
1979-03-01 18:42:52.560 ,6,1,0.,12.0,0.,12.0,0.,12.0,0.,12.0
1979-03-01 18:43:04.560 ,5,1,0.,12.0,0.,12.0,0.,12.0,0.,12.0
1979-03-01 18:43:16.560 ,5,1,0.,12.0,0.,12.0,0.,12.0,0.,12.0
1979-03-01 18:43:28.560 ,4,1,0.,12.0,0.,12.0,0.,12.0,0.,12.0
1979-03-01 18:43:40.560 ,4,1,0.,12.0,0.,12.0,0.,12.0,0.,12.0
1979-03-01 18:43:52.560 ,3,1,0.,12.0,0.,12.0,0.,12.0,0.,12.0
1979-03-01 18:44:04.560 ,3,1,0.,12.0,0.,12.0,0.,12.0,0.,12.0
1979-03-01 18:44:16.560 ,2,1,0.,12.0,0.,12.0,0.,12.0,0.,12.0
1979-03-01 18:44:28.560 ,2,1,0.,12.0,0.,12.0,0.,12.0,0.,12.0
1979-03-01 18:44:40.560 ,1,1,0.,12.0,0.,12.0,0.,12.0,0.,12.0
1979-03-01 18:44:52.560 ,1,1,0.,12.0,0.,12.0,0.,12.0,0.,12.0
1979-03-01 18:45:04.560 ,0,1,0.,12.0,0.,12.0,0.,12.0,0.,12.0
1979-03-01 18:45:16.560 ,0,1,0.,12.0,0.,12.0,0.,12.0,0.,12.0
1979-03-01 18:45:28.560 ,0,1,0.,12.0,0.,12.0,0.,12.0,0.,12.0
1979-03-01 18:45:40.560 ,0,1,0.,12.0,0.,12.0,0.,12.0,0.,12.0
1979-03-01 18:45:52.560 ,1,1,0.,12.0,0.,12.0,0.,12.0,0.,12.0
1979-03-01 18:46:04.560 ,1,1,0.,12.0,0.,12.0,0.,12.0,0.,12.0
1979-03-01 18:46:16.560 ,2,1,0.,12.0,0.,12.0,0.,12.0,0.,12.0
1979-03-01 18:46:28.560 ,2,1,0.,12.0,0.,12.0,0.,12.0,0.,12.0
1979-03-01 18:46:40.560 ,3,1,0.,12.0,0.,12.0,0.,12.0,0.,12.0
1979-03-01 18:46:52.560 ,3,1,0.,12.0,0.,12.0,0.,12.0,0.,12.0
1979-03-01 18:47:04.560 ,4,1,0.,12.0,0.,12.0,0.,12.0,0.,12.0
1979-03-01 18:47:16.560 ,4,1,0.,12.0,0.,12.0,0.,12.0,0.,12.0
1979-03-01 18:47:28.560 ,5,1,0.,12.0,0.,12.0,0.,12.0,0.,12.0
1979-03-01 18:47:40.560 ,5,1,0.,12.0,0.,12.0,0.,12.0,0.,12.0
1979-03-01 18:47:52.560 ,6,1,0.,12.0,0.,12.0,0.,12.0,0.,12.0
1979-03-01 18:48:04.560 ,6,1,0.,12.0,0.,12.0,0.,12.0,0.,12.0
1979-03-01 18:48:16.560 ,0,0,0.,12.0,0.,12.0,0.,12.0,0.,12.0
1979-03-01 18:48:28.560 ,0,0,0.,12.0,0.,12.0,0.,12.0,0.,12.0
1979-03-01 18:48:40.560 ,7,1,0.,12.0,0.,12.0,0.,12.0,0.,12.0
1979-03-01 18:48:52.560 ,7,1,0.,12.0,0.,12.0,0.,12.0,0.,12.0
1979-03-01 18:49:04.560 ,6,1,0.,12.0,0.,12.0,0.,12.0,0.,12.0
1979-03-01 18:49:16.560 ,6,1,0.,12.0,0.,12.0,0.,12.0,0.,12.0
1979-03-01 18:49:28.560 ,5,1,0.,12.0,0.,12.0,0.,12.0,0.,12.0
1979-03-01 18:49:40.560 ,5,1,0.,12.0,0.,12.0,0.,12.0,0.,12.0
1979-03-01 18:49:52.560 ,4,1,0.,12.0,0.,12.0,0.,12.0,0.,12.0
1979-03-01 18:50:04.560 ,4,1,0.,12.0,0.,12.0,0.,12.0,0.,12.0
1979-03-01 18:50:16.560 ,3,1,0.,12.0,0.,12.0,0.,12.0,0.,12.0
1979-03-01 18:50:28.560 ,3,1,0.,12.0,0.,12.0,0.,12.0,0.,12.0
1979-03-01 18:50:40.560 ,2,1,0.,12.0,0.,12.0,0.,12.0,0.,12.0
1979-03-01 18:50:52.560 ,2,1,0.,12.0,0.,12.0,0.,12.0,0.,12.0
1979-03-01 18:51:04.560 ,1,1,0.,12.0,0.,12.0,0.,12.0,0.,12.0
1979-03-01 18:51:16.560 ,1,1,0.,12.0,0.,12.0,0.,12.0,0.,12.0
1979-03-01 18:51:28.560 ,0,1,0.,12.0,0.,12.0,0.,12.0,0.,12.0
1979-03-01 18:51:40.560 ,0,1,0.,12.0,0.,12.0,0.,12.0,0.,12.0
1979-03-01 18:51:52.560 ,0,1,0.,12.0,0.,12.0,0.,12.0,0.,12.0
1979-03-01 18:52:04.560 ,0,1,0.,12.0,0.,12.0,0.,12.0,0.,12.0
1979-03-01 18:52:16.560 ,1,1,0.,12.0,0.,12.0,0.,12.0,0.,12.0
1979-03-01 18:52:28.560 ,1,1,0.,12.0,0.,12.0,0.,12.0,0.,12.0
1979-03-01 18:52:40.560 ,2,1,0.,12.0,0.,12.0,0.,12.0,0.,12.0
1979-03-01 18:52:52.560 ,2,1,0.,12.0,0.,12.0,0.,12.0,0.,12.0
1979-03-01 18:53:04.560 ,3,1,0.,12.0,0.,12.0,0.,12.0,0.,12.0
1979-03-01 18:53:16.560 ,3,1,0.,12.0,0.,12.0,0.,12.0,0.,12.0
1979-03-01 18:53:28.560 ,4,1,0.,12.0,0.,12.0,0.,12.0,0.,12.0
1979-03-01 18:53:40.560 ,4,1,0.,12.0,0.,12.0,0.,12.0,0.,12.0
1979-03-01 18:53:52.560 ,5,1,0.,12.0,0.,12.0,0.,12.0,0.,12.0
1979-03-01 18:54:04.560 ,5,1,0.,12.0,0.,12.0,0.,12.0,0.,12.0
1979-03-01 18:54:16.560 ,6,1,0.,12.0,0.,12.0,0.,12.0,0.,12.0
1979-03-01 18:54:28.560 ,6,1,0.,12.0,0.,12.0,0.,12.0,0.,12.0
1979-03-01 18:54:40.560 ,7,1,0.,12.0,0.,12.0,0.,12.0,0.,12.0
1979-03-01 18:54:52.560 ,7,1,0.,12.0,0.,12.0,0.,12.0,0.,12.0
1979-03-01 18:55:04.560 ,7,1,0.,12.0,0.,12.0,0.,12.0,0.,12.0
1979-03-01 18:55:16.560 ,7,1,0.,12.0,0.,12.0,0.,12.0,0.,12.0
1979-03-01 18:55:28.560 ,6,1,0.,12.0,0.,12.0,0.,12.0,0.,12.0
1979-03-01 18:55:40.560 ,6,1,0.,12.0,0.,12.0,0.,12.0,0.,12.0
1979-03-01 18:55:52.560 ,5,1,0.,12.0,0.,12.0,0.,12.0,0.,12.0
1979-03-01 18:56:04.560 ,5,1,0.,12.0,0.,12.0,0.,12.0,0.,12.0
1979-03-01 18:56:16.560 ,4,1,0.,12.0,0.,12.0,0.,12.0,0.,12.0
1979-03-01 18:56:28.560 ,4,1,0.,12.0,0.,12.0,0.,12.0,0.,12.0
1979-03-01 18:56:40.560 ,3,1,0.,12.0,0.,12.0,0.,12.0,0.,12.0
1979-03-01 18:56:52.560 ,3,1,0.,12.0,0.,12.0,0.,12.0,0.,12.0
1979-03-01 18:57:04.560 ,2,1,0.,12.0,0.,12.0,0.,12.0,0.,12.0
1979-03-01 18:57:16.560 ,2,1,0.,12.0,0.,12.0,0.,12.0,0.,12.0
1979-03-01 18:57:28.560 ,1,1,0.,12.0,0.,12.0,0.,12.0,0.,12.0
1979-03-01 18:57:40.560 ,1,1,0.,12.0,0.,12.0,0.,12.0,0.,12.0
1979-03-01 18:57:52.560 ,0,1,0.,12.0,0.,12.0,0.,12.0,0.,12.0
1979-03-01 18:58:04.560 ,0,1,1.,12.0,0.,12.0,0.,12.0,0.,12.0
1979-03-01 18:58:16.560 ,0,1,0.,12.0,0.,12.0,0.,12.0,0.,12.0
1979-03-01 18:58:28.560 ,0,1,0.,12.0,0.,12.0,0.,12.0,1.,12.0
1979-03-01 18:58:40.560 ,1,1,0.,12.0,0.,12.0,0.,12.0,0.,12.0
1979-03-01 18:58:52.560 ,1,1,0.,12.0,0.,12.0,0.,12.0,0.,12.0
1979-03-01 18:59:04.560 ,2,1,0.,12.0,0.,12.0,0.,12.0,0.,12.0
1979-03-01 18:59:16.560 ,2,1,1.,12.0,0.,12.0,0.,12.0,0.,12.0
1979-03-01 18:59:28.560 ,3,1,0.,12.0,0.,12.0,0.,12.0,0.,12.0
1979-03-01 18:59:40.560 ,3,1,0.,12.0,0.,12.0,0.,12.0,0.,12.0
1979-03-01 18:59:52.560 ,4,1,0.,12.0,0.,12.0,0.,12.0,0.,12.0
1979-03-01 19:00:04.560 ,4,1,0.,12.0,0.,12.0,0.,12.0,0.,12.0
1979-03-01 19:00:16.560 ,5,1,0.,12.0,0.,12.0,0.,12.0,0.,12.0
1979-03-01 19:00:28.560 ,5,1,0.,12.0,0.,12.0,0.,12.0,0.,12.0
1979-03-01 19:00:40.560 ,6,1,0.,12.0,0.,12.0,0.,12.0,0.,12.0
1979-03-01 19:00:52.560 ,6,1,0.,12.0,0.,12.0,0.,12.0,0.,12.0
1979-03-01 19:01:04.560 ,7,1,0.,12.0,0.,12.0,0.,12.0,0.,12.0
1979-03-01 19:01:16.560 ,7,1,0.,12.0,0.,12.0,0.,12.0,0.,12.0
1979-03-01 19:01:28.560 ,7,1,0.,12.0,0.,12.0,0.,12.0,0.,12.0
1979-03-01 19:01:40.560 ,7,1,0.,12.0,0.,12.0,0.,12.0,0.,12.0
1979-03-01 19:01:52.560 ,6,1,0.,12.0,0.,12.0,0.,12.0,0.,12.0
1979-03-01 19:02:04.560 ,6,1,0.,12.0,0.,12.0,0.,12.0,0.,12.0
1979-03-01 19:02:16.560 ,5,1,0.,12.0,0.,12.0,0.,12.0,0.,12.0
1979-03-01 19:02:28.560 ,5,1,0.,12.0,0.,12.0,0.,12.0,0.,12.0
1979-03-01 19:02:40.560 ,4,1,0.,12.0,0.,12.0,0.,12.0,0.,12.0
1979-03-01 19:02:52.560 ,4,1,0.,12.0,0.,12.0,0.,12.0,0.,12.0
1979-03-01 19:03:04.560 ,3,1,0.,12.0,0.,12.0,0.,12.0,0.,12.0
1979-03-01 19:03:16.560 ,3,1,0.,12.0,0.,12.0,0.,12.0,0.,12.0
1979-03-01 19:03:28.560 ,2,1,0.,12.0,0.,12.0,0.,12.0,0.,12.0
1979-03-01 19:03:40.560 ,2,1,0.,12.0,0.,12.0,0.,12.0,0.,12.0
1979-03-01 19:03:52.560 ,1,1,0.,12.0,0.,12.0,0.,12.0,0.,12.0
1979-03-01 19:04:04.560 ,1,1,0.,12.0,0.,12.0,0.,12.0,0.,12.0
1979-03-01 19:04:16.560 ,0,1,0.,12.0,0.,12.0,0.,12.0,0.,12.0
1979-03-01 19:04:28.560 ,0,1,0.,12.0,0.,12.0,0.,12.0,0.,12.0
1979-03-01 19:04:40.560 ,0,1,0.,12.0,0.,12.0,0.,12.0,1.,12.0
1979-03-01 19:04:52.560 ,0,1,0.,12.0,0.,12.0,0.,12.0,0.,12.0
1979-03-01 19:05:04.560 ,1,1,0.,12.0,0.,12.0,0.,12.0,0.,12.0
1979-03-01 19:05:16.560 ,1,1,0.,12.0,0.,12.0,0.,12.0,0.,12.0
1979-03-01 19:05:28.560 ,2,1,0.,12.0,0.,12.0,0.,12.0,0.,12.0
1979-03-01 19:05:40.560 ,2,1,0.,12.0,0.,12.0,0.,12.0,0.,12.0
1979-03-01 19:05:52.560 ,3,1,0.,12.0,0.,12.0,0.,12.0,0.,12.0
1979-03-01 19:06:04.560 ,3,1,0.,12.0,0.,12.0,0.,12.0,0.,12.0
1979-03-01 19:06:16.560 ,4,1,0.,12.0,0.,12.0,0.,12.0,0.,12.0
1979-03-01 19:06:28.560 ,4,1,0.,12.0,0.,12.0,0.,12.0,0.,12.0
1979-03-01 19:06:40.560 ,5,1,0.,12.0,0.,12.0,0.,12.0,0.,12.0
1979-03-01 19:06:52.560 ,5,1,0.,12.0,0.,12.0,0.,12.0,0.,12.0
1979-03-01 19:07:04.560 ,6,1,0.,12.0,0.,12.0,0.,12.0,0.,12.0
1979-03-01 19:07:16.560 ,6,1,0.,12.0,0.,12.0,0.,12.0,0.,12.0
1979-03-01 19:07:28.560 ,7,1,0.,12.0,0.,12.0,0.,12.0,0.,12.0
1979-03-01 19:07:40.560 ,7,1,0.,12.0,0.,12.0,0.,12.0,0.,12.0
1979-03-01 19:07:52.560 ,7,1,0.,12.0,0.,12.0,0.,12.0,0.,12.0
1979-03-01 19:08:04.560 ,7,1,0.,12.0,0.,12.0,0.,12.0,0.,12.0
1979-03-01 19:08:16.560 ,6,1,0.,12.0,0.,12.0,0.,12.0,0.,12.0
1979-03-01 19:08:28.560 ,6,1,0.,12.0,0.,12.0,0.,12.0,0.,12.0
1979-03-01 19:08:40.560 ,5,1,0.,12.0,0.,12.0,0.,12.0,0.,12.0
1979-03-01 19:08:52.560 ,5,1,0.,12.0,0.,12.0,0.,12.0,0.,12.0
1979-03-01 19:09:04.560 ,4,1,0.,12.0,0.,12.0,0.,12.0,0.,12.0
1979-03-01 19:09:16.560 ,4,1,0.,12.0,0.,12.0,0.,12.0,0.,12.0
1979-03-01 19:09:28.560 ,3,1,0.,12.0,0.,12.0,0.,12.0,0.,12.0
1979-03-01 19:09:40.560 ,3,1,0.,12.0,0.,12.0,0.,12.0,0.,12.0
1979-03-01 19:09:52.560 ,2,1,0.,12.0,0.,12.0,0.,12.0,0.,12.0
1979-03-01 19:10:04.560 ,2,1,0.,12.0,0.,12.0,0.,12.0,0.,12.0
1979-03-01 19:10:16.560 ,1,1,0.,12.0,0.,12.0,0.,12.0,0.,12.0
1979-03-01 19:10:28.560 ,1,1,0.,12.0,0.,12.0,0.,12.0,0.,12.0
1979-03-01 19:10:40.560 ,0,1,0.,12.0,0.,12.0,0.,12.0,0.,12.0
1979-03-01 19:10:52.560 ,0,1,0.,12.0,0.,12.0,0.,12.0,0.,12.0
1979-03-01 19:11:04.560 ,0,1,0.,12.0,0.,12.0,0.,12.0,0.,12.0
1979-03-01 19:11:16.560 ,0,1,0.,12.0,0.,12.0,0.,12.0,0.,12.0
1979-03-01 19:11:28.560 ,1,1,0.,12.0,0.,12.0,0.,12.0,1.,12.0
1979-03-01 19:11:40.560 ,1,1,0.,12.0,0.,12.0,0.,12.0,0.,12.0
1979-03-01 19:11:52.560 ,2,1,0.,12.0,0.,12.0,0.,12.0,0.,12.0
1979-03-01 19:12:04.560 ,2,1,0.,12.0,0.,12.0,0.,12.0,0.,12.0
1979-03-01 19:12:16.560 ,3,1,0.,12.0,0.,12.0,0.,12.0,0.,12.0
1979-03-01 19:12:28.560 ,3,1,0.,12.0,0.,12.0,0.,12.0,0.,12.0
1979-03-01 19:12:40.560 ,4,1,0.,12.0,0.,12.0,0.,12.0,0.,12.0
1979-03-01 19:12:52.560 ,4,1,0.,12.0,0.,12.0,0.,12.0,0.,12.0
1979-03-01 19:13:04.560 ,5,1,0.,12.0,0.,12.0,0.,12.0,0.,12.0
1979-03-01 19:13:16.560 ,5,1,0.,12.0,0.,12.0,0.,12.0,0.,12.0
1979-03-01 19:13:28.560 ,6,1,0.,12.0,0.,12.0,0.,12.0,0.,12.0
1979-03-01 19:13:40.560 ,6,1,0.,12.0,0.,12.0,0.,12.0,0.,12.0
1979-03-01 19:13:52.560 ,7,1,0.,12.0,0.,12.0,0.,12.0,0.,12.0
1979-03-01 19:14:04.560 ,7,1,0.,12.0,0.,12.0,0.,12.0,0.,12.0
1979-03-01 19:14:16.560 ,7,1,0.,12.0,0.,12.0,0.,12.0,0.,12.0
1979-03-01 19:14:28.560 ,7,1,0.,12.0,0.,12.0,0.,12.0,0.,12.0
1979-03-01 19:14:40.560 ,6,1,0.,12.0,0.,12.0,0.,12.0,0.,12.0
1979-03-01 19:14:52.560 ,6,1,0.,12.0,0.,12.0,0.,12.0,0.,12.0
1979-03-01 19:15:04.560 ,5,1,0.,12.0,0.,12.0,0.,12.0,0.,12.0
1979-03-01 19:15:16.560 ,5,1,0.,12.0,0.,12.0,0.,12.0,0.,12.0
1979-03-01 19:15:28.560 ,4,1,0.,12.0,0.,12.0,0.,12.0,0.,12.0
1979-03-01 19:15:40.560 ,4,1,0.,12.0,0.,12.0,0.,12.0,0.,12.0
1979-03-01 19:15:52.560 ,3,1,0.,12.0,0.,12.0,0.,12.0,0.,12.0
1979-03-01 19:16:04.560 ,3,1,0.,12.0,0.,12.0,0.,12.0,0.,12.0
1979-03-01 19:16:16.560 ,2,1,0.,12.0,0.,12.0,0.,12.0,0.,12.0
1979-03-01 19:16:28.560 ,2,1,0.,12.0,0.,12.0,0.,12.0,0.,12.0
1979-03-01 19:16:40.560 ,1,1,0.,12.0,0.,12.0,0.,12.0,0.,12.0
1979-03-01 19:16:52.560 ,1,1,0.,12.0,0.,12.0,0.,12.0,0.,12.0
1979-03-01 19:17:04.560 ,0,1,0.,12.0,0.,12.0,0.,12.0,0.,12.0
1979-03-01 19:17:16.560 ,0,1,0.,12.0,0.,12.0,0.,12.0,0.,12.0